Weather History for Paris / Charles De Gaulle, France

Change the Weather History Date:

Thursday, December 5, 2013

  Actual Average Record
Temperature  
Mean Temperature 42 °F -  
Max Temperature 46 °F 43 °F 60 °F (2006)
Min Temperature 39 °F 34 °F 30 °F (1998)
Degree Days  
Heating Degree Days 22    
Moisture  
Dew Point 38 °F    
Average Humidity 81    
Maximum Humidity 93    
Minimum Humidity 57    
Precipitation  
Precipitation 0.00 in - - ()
Sea Level Pressure  
Sea Level Pressure 30.35 in    
Wind  
Wind Speed 8 mph ()    
Max Wind Speed 22 mph    
Max Gust Speed -    
Visibility 4.9 miles    
Events Rain    
Averages and records for this station are not official NWS values.
T = Trace of Precipitation, MM = Missing Value Source: Averaged Metar Reports

Daily Weather History Graph

Daily Weather History Graph

Search for Another Location

Airport:

Trip Planner

Search our weather history database for the weather conditions in past years. The results will help you decide how hot, cold, wet, or windy it might be!

Date:

Astronomy

Dec. 05, 2013 Rise Set
Actual Time 8:27 AM CET 4:53 PM CET
Civil Twilight 7:50 AM CET 5:30 PM CET
Nautical Twilight 7:10 AM CET 6:10 PM CET
Astronomical Twilight 6:32 AM CET 6:48 PM CET
Moon 10:28 AM CET (12/5) 8:03 PM CET (12/5)
Length of Visible Light 9h 39m
Length of Day
8h 25m
Waxing Crescent, 9% of the Moon is Illuminated
Dec 5
Waxing Crescent
Dec 9
First Quarter
Dec 17
Full
Dec 25
Last Quarter
Jan 1
New

Hourly Weather History & Observations

Time (CET) Temp. Windchill Dew Point Humidity Pressure Visibility Wind Dir Wind Speed Gust Speed Precip Events Conditions
12:00 AM 42.8 °F 37.5 °F 41.0 °F 93% 30.45 in 1.9 mi NNE 9.2 mph - N/A   Light Drizzle
12:30 AM 42.8 °F 38.0 °F 41.0 °F 93% 30.48 in 3.7 mi NNE 8.1 mph - N/A   Light Drizzle
1:00 AM 42.8 °F 40.1 °F 41.0 °F 93% 30.48 in 3.7 mi North 4.6 mph - N/A   Mostly Cloudy
1:30 AM 42.8 °F 41.1 °F 41.0 °F 93% 30.45 in 3.7 mi North 3.5 mph - N/A   Mostly Cloudy
2:00 AM 42.8 °F - 41.0 °F 93% 30.45 in 5.0 mi Variable 2.3 mph - N/A   Mostly Cloudy
2:30 AM 42.8 °F 41.1 °F 41.0 °F 93% 30.45 in 4.3 mi NNW 3.5 mph - N/A   Mostly Cloudy
3:00 AM 42.8 °F 41.1 °F 41.0 °F 93% 30.45 in 4.3 mi Variable 3.5 mph - N/A   Overcast
3:30 AM 42.8 °F 41.1 °F 41.0 °F 93% 30.45 in 5.0 mi NNW 3.5 mph - N/A   Overcast
4:00 AM 42.8 °F 40.1 °F 39.2 °F 87% 30.45 in 4.3 mi North 4.6 mph - N/A   Overcast
4:30 AM 42.8 °F 38.6 °F 41.0 °F 93% 30.45 in 4.3 mi NNW 6.9 mph - N/A   Mostly Cloudy
5:00 AM 42.8 °F 39.3 °F 39.2 °F 87% 30.45 in 3.1 mi North 5.8 mph - N/A   Mostly Cloudy
5:30 AM 42.8 °F 40.1 °F 39.2 °F 87% 30.45 in 2.5 mi NNW 4.6 mph - N/A   Mostly Cloudy
6:00 AM 41.0 °F 39.0 °F 39.2 °F 93% 30.42 in 2.2 mi NW 3.5 mph - N/A   Mostly Cloudy
6:30 AM 41.0 °F 37.1 °F 39.2 °F 93% 30.42 in 2.2 mi NNW 5.8 mph - N/A   Mostly Cloudy
7:00 AM 41.0 °F 39.0 °F 39.2 °F 93% 30.42 in 2.5 mi NW 3.5 mph - N/A   Mostly Cloudy
7:30 AM 41.0 °F 39.0 °F 39.2 °F 93% 30.42 in 2.8 mi NW 3.5 mph - N/A   Mostly Cloudy
8:00 AM 41.0 °F 38.0 °F 37.4 °F 87% 30.42 in 3.7 mi NNW 4.6 mph - N/A   Mostly Cloudy
8:30 AM 39.2 °F 37.0 °F 37.4 °F 93% 30.42 in 3.7 mi NW 3.5 mph - N/A   Mostly Cloudy
9:00 AM 39.2 °F - 37.4 °F 93% 30.42 in 4.3 mi West 2.3 mph - N/A   Mostly Cloudy
9:30 AM 39.2 °F 35.9 °F 37.4 °F 93% 30.39 in 3.7 mi SW 4.6 mph - N/A   Scattered Clouds
10:00 AM 41.0 °F 36.4 °F 39.2 °F 93% 30.39 in 3.1 mi WSW 6.9 mph - N/A   Scattered Clouds
10:30 AM 41.0 °F 36.4 °F 39.2 °F 93% 30.42 in 4.3 mi West 6.9 mph - N/A   Scattered Clouds
11:00 AM 42.8 °F 37.5 °F 37.4 °F 81% 30.42 in 6.2 mi West 9.2 mph - N/A   Mostly Cloudy
11:30 AM 44.6 °F 38.4 °F 37.4 °F 76% 30.39 in 6.2 mi WSW 12.7 mph - N/A   Mostly Cloudy
12:00 PM 44.6 °F 38.4 °F 37.4 °F 76% 30.36 in - WSW 12.7 mph - N/A   Clear
12:30 PM 44.6 °F 38.8 °F 35.6 °F 71% 30.36 in 6.2 mi West 11.5 mph - N/A   Mostly Cloudy
1:00 PM 44.6 °F 37.2 °F 35.6 °F 71% 30.33 in 6.2 mi West 17.3 mph - N/A   Mostly Cloudy
1:30 PM 46.4 °F 38.7 °F 35.6 °F 66% 30.33 in 6.2 mi West 20.7 mph - N/A   Mostly Cloudy
2:00 PM 46.4 °F 38.5 °F 32.0 °F 57% 30.30 in 6.2 mi West 21.9 mph - N/A   Mostly Cloudy
2:30 PM 46.4 °F 38.7 °F 32.0 °F 57% 30.30 in 6.2 mi West 20.7 mph - N/A   Mostly Cloudy
3:00 PM 46.4 °F 38.5 °F 33.8 °F 62% 30.27 in 6.2 mi WSW 21.9 mph - N/A   Mostly Cloudy
3:30 PM 46.4 °F 39.0 °F 33.8 °F 62% 30.24 in 6.2 mi WSW 19.6 mph - N/A   Mostly Cloudy
4:00 PM 46.4 °F 39.0 °F 33.8 °F 62% 30.24 in 6.2 mi WSW 19.6 mph - N/A   Scattered Clouds
4:30 PM 44.6 °F 36.9 °F 33.8 °F 66% 30.24 in 6.2 mi WSW 18.4 mph - N/A   Scattered Clouds
5:00 PM 44.6 °F 37.4 °F 33.8 °F 66% 30.24 in 6.2 mi WSW 16.1 mph - N/A   Scattered Clouds
5:30 PM 44.6 °F 38.1 °F 35.6 °F 71% 30.24 in 6.2 mi West 13.8 mph - N/A   Mostly Cloudy
6:00 PM 44.6 °F 37.4 °F 35.6 °F 71% 30.24 in 6.2 mi WSW 16.1 mph - N/A   Mostly Cloudy
6:30 PM 44.6 °F 37.4 °F 35.6 °F 71% 30.24 in 6.2 mi WSW 16.1 mph - N/A   Mostly Cloudy
7:00 PM 44.6 °F 36.9 °F 35.6 °F 71% 30.24 in 6.2 mi WSW 18.4 mph - N/A   Mostly Cloudy
7:30 PM 44.6 °F 38.4 °F 37.4 °F 76% 30.24 in 6.2 mi WSW 12.7 mph - N/A   Mostly Cloudy
8:00 PM 46.4 °F 39.8 °F 37.4 °F 71% 30.24 in 6.2 mi West 16.1 mph - N/A   Mostly Cloudy
8:30 PM 44.6 °F 37.4 °F 37.4 °F 76% 30.21 in 6.2 mi WSW 16.1 mph - N/A   Mostly Cloudy
9:00 PM 46.4 °F 40.4 °F 39.2 °F 76% 30.21 in 6.2 mi WSW 13.8 mph - N/A   Mostly Cloudy
9:30 PM 46.4 °F 40.1 °F 41.0 °F 81% 30.21 in 6.2 mi West 15.0 mph - N/A   Mostly Cloudy
10:00 PM 46.4 °F 39.8 °F 41.0 °F 81% 30.21 in 6.2 mi West 16.1 mph - N/A Rain Light Rain
10:30 PM 46.4 °F 39.8 °F 42.8 °F 87% 30.21 in 6.2 mi West 16.1 mph - N/A   Mostly Cloudy
11:00 PM 46.4 °F 40.1 °F 42.8 °F 87% 30.24 in 2.8 mi WNW 15.0 mph - N/A   Mostly Cloudy
11:30 PM 44.6 °F 38.8 °F 41.0 °F 87% 30.24 in 6.2 mi WNW 11.5 mph - N/A Rain Light Rain